SCP
0 0 0 0 0 0 0 0 0 0 0 0 0 0 0 0 0 0 -0 -0 0 0 0 0 0 0 0 0 0 0 0 0 0 0 0 0 0 0 0 0 0 0 0 0
0 0 0 0 0 0 0 0 0 0 0 0 0 0 0 0 0 0 -0 -0 -0 -0 0 0 0 0 0 0 0 0 0 0 0 0 0 0 0 0 0 0 0 0 0 0
0 0 0 0 0 0 0 0 0 0 0 0 0 0 0 0 0 0 -0 -0 -0 -0 0 0 0 0 0 0 0 0 0 0 0 0 0 0 0 0 0 0 0 0 0 0
0 0 0 0 0 0 0 0 0 0 0 0 0 0 0 0 0 0 -0 -0 -0 -0 -0 0 0 0 0 0 0 0 0 0 0 0 0 0 0 0 0 0 0 0 0 0
0 0 0 0 0 0 0 0 0 0 0 0 0 0 0 0 0 -0 -0 -0 -0 -0 -0 0 0 0 0 0 0 0 0 0 0 0 0 0 0 0 0 0 0 0 0 0
0 0 0 0 0 0 0 0 0 0 0 0 0 0 0 0 0 0 -0 -0 -0 -0 -0 0 0 0 0 0 0 0 0 0 0 0 0 0 0 0 0 0 0 0 0 0
0 0 0 0 0 0 0 0 0 0 0 0 0 0 0 0 0 0 -0 -0 -0 -0 0 -0 0 0 0 0 0 0 0 0 0 0 0 0 0 0 0 0 0 0 0 0
0 0 0 0 0 0 0 0 0 0 0 0 0 0 0 0 0 0 -0 0 0 0 -0 0 0 0 0 0 0 0 0 0 0 0 0 0 0 0 0 0 0 0 0 0
0 0 0 0 0 0 0 0 0 0 0 0 0 0 0 0 -0 -0 -0 0 0 0 0 0 0 0 0 0 0 0 0 0 0 0 0 0 0 0 0 0 0 0 0 0
0 0 0 0 0 0 0 0 0 0 0 0 0 0 0 0 0 0 -0 -0 0 0 0 0 0 0 0 0 0 0 0 0 0 0 0 0 0 0 0 0 0 0 0 0
0 0 0 0 0 0 0 0 0 0 0 0 0 0 0 0 0 0 0 0 0 0 0 0 0 0 0 0 0 0 0 0 0 0 0 0 0 0 0 0 0 0 0 0
0 0 0 0 -0 -0 0 0 0 0 0 0 -0 0 0 0 0 0 0 0 0 0 0 0 0 0 0 0 0 0 0 0 0 0 0 0 0 0 0 0 0 0 0 0
0 0 0 0 0 0 0 0 0 0 0 0 0 -0 -0 0 0 0 0 0 0 0 0 0 0 0 0 0 0 0 0 0 0 0 0 0 0 0 0 0 0 0 0 0
0 0 0 0 0 0 0 0 0 0 0 -0 -0 -0 -0 0 0 0 0 0 0 0 0 0 0 0 0 0 0 0 0 0 0 0 0 0 0 0 0 0 0 0 0 0
0 0 0 0 0 0 0 0 0 0 0 -0 -0 -0 -0 0 0 0 0 0 0 0 0 0 0 0 0 0 0 0 0 0 0 0 0 0 0 0 0 0 0 0 0 0
0 0 0 0 0 0 0 0 0 0 0 -0 -0 -0 -0 0 0 0 0 0 0 0 0 0 0 0 0 0 0 0 0 0 0 0 0 0 0 0 0 0 0 0 0 0
0 0 0 0 0 0 0 -0 0 0 -0 -0 -0 0 -0 0 0 0 0 0 0 0 0 0 0 0 0 0 0 0 0 0 0 0 0 0 0 0 0 0 0 0 0 0
0 0 0 0 0 0 0 0 0 0 -0 -0 -0 0 0 0 0 0 0 0 0 0 0 0 0 0 0 0 0 0 0 0 0 0 0 0 0 0 0 0 0 0 0 0
0 0 0 0 0 0 0 0 0 -0 -0 -0 -0 -0 0 0 0 0 0 0 0 0 0 0 0 0 0 0 0 0 0 0 0 0 0 0 0 0 0 0 0 0 0 0
0 0 0 0 0 0 0 0 0 0 0 -0 -0 -0 0 0 0 0 0 0 0 0 0 0 0 0 0 0 0 0 0 0 0 0 0 0 0 0 0 0 0 0 0 0
0 0 0 0 0 0 0 0 0 0 -0 -0 -0 0 0 0 0 0 0 0 0 0 0 0 0 0 0 0 0 0 0 0 0 0 0 0 0 0 0 0 0 0 0 0
0 0 0 0 0 0 0 0 0 0 0 0 0 0 0 0 0 0 0 0 0 0 0 0 0 0 0 0 0 0 0 0 0 0 0 0 0 0 0 0 0 0 0 0
0 0 0 0 0 0 0 0 0 0 0 0 0 0 -0 -0 0 0 0 0 0 0 0 0 0 0 0 0 0 0 0 0 0 0 0 0 0 0 0 0 0 0 0 0
0 0 0 0 0 0 0 0 0 0 0 0 0 -0 -0 -0 0 0 0 0 0 0 0 0 0 0 0 0 0 0 0 0 0 0 0 0 0 0 0 0 0 0 0 0
0 0 0 0 0 0 0 0 0 0 0 0 0 0 0 -0 -0 0 0 0 0 0 0 0 0 0 0 0 0 0 0 0 0 0 0 0 0 0 0 0 0 0 0 0
0 0 0 0 0 0 0 0 0 0 0 0 0 0 0 0 0 0 0 0 0 0 0 0 0 0 0 0 0 0 0 0 0 0 0 0 0 0 0 0 0 0 0 0
0 0 0 0 0 0 0 0 0 0 0 0 0 0 0 0 0 0 0 0 0 0 0 0 0 0 0 0 0 0 0 0 0 0 0 0 0 0 0 0 0 0 0 0
Wind_Speed_500mb
71 74 77 76 72 69 67 39 7 50 60 9 5 8 13 13 11 26 8 6 4 7 34 54 50 59 37 66 52 33 10 12 20 26 8 9 13 21 22 16 16 7 5 10
67 67 69 70 71 76 65 27 19 54 63 14 10 4 10 8 11 15 16 18 23 13 14 26 35 51 61 99 59 42 19 10 19 6 9 9 36 23 38 6 6 20 10 11
63 68 72 74 79 76 62 25 9 11 39 8 9 7 8 12 29 10 25 7 14 13 28 37 33 25 29 96 76 57 24 15 32 40 66 19 39 47 41 8 9 8 30 8
65 67 68 73 79 72 46 11 7 18 19 24 19 20 16 22 13 25 22 19 34 23 18 38 25 28 24 53 62 15 14 14 17 7 14 32 44 38 42 38 28 21 31 25
67 65 63 66 74 74 22 16 12 16 5 30 32 18 20 21 21 19 21 35 34 34 30 41 17 36 34 34 34 41 9 17 10 4 24 36 47 53 52 58 54 46 9 25
63 60 58 59 70 77 17 17 23 23 16 21 17 32 35 33 21 20 50 32 31 34 55 51 71 70 48 53 48 50 29 14 10 5 13 21 11 62 64 59 48 59 37 35
60 57 50 50 66 71 33 33 29 10 7 18 32 18 34 41 40 43 10 53 41 35 37 40 61 59 28 54 43 44 33 15 7 7 22 18 14 42 57 59 57 57 41 17
59 51 46 43 63 63 46 35 21 12 7 16 20 19 13 11 29 31 31 66 60 44 28 13 20 8 7 37 56 35 22 15 10 12 20 7 14 16 57 43 60 51 54 31
54 46 40 39 42 53 52 42 29 13 9 12 12 8 13 16 18 15 32 40 31 37 16 11 10 10 11 12 12 11 9 13 14 9 13 24 7 14 58 14 36 49 52 42
48 42 37 33 28 26 26 23 38 18 7 13 20 8 9 10 18 13 6 11 16 55 9 10 8 5 10 21 29 24 18 13 22 17 6 17 15 13 68 27 23 44 81 81
42 37 31 25 20 19 18 14 23 30 13 17 23 21 23 20 22 17 11 11 2 5 9 5 7 6 8 9 13 34 21 22 13 7 5 24 22 45 50 8 13 36 56 73
30 27 23 20 18 13 7 7 11 26 19 12 19 36 39 46 53 20 26 6 11 16 7 3 7 6 9 14 19 10 5 19 20 28 15 8 36 40 64 33 31 25 46 60
25 21 18 15 12 8 3 5 13 14 9 15 17 19 27 41 42 38 12 9 22 16 19 9 6 9 7 10 7 9 5 9 10 9 12 10 38 31 35 30 27 35 36 50
25 20 17 14 13 15 8 6 7 8 8 6 11 19 21 25 40 46 56 11 22 11 15 2 4 7 4 5 10 8 8 13 13 2 4 12 26 45 41 32 32 40 44 50
26 23 22 22 22 21 16 11 7 4 7 5 9 23 22 32 28 37 60 23 19 7 5 5 3 3 6 3 7 4 8 6 14 11 21 9 40 72 66 43 45 49 50 51
17 11 8 5 3 3 9 4 5 14 11 10 6 9 15 35 11 33 37 14 18 9 9 3 4 6 2 6 5 10 21 24 22 5 16 20 45 73 57 53 52 54 51 51
23 22 19 9 4 2 8 9 19 14 9 6 6 6 12 41 21 3 18 9 13 9 10 4 6 2 5 5 6 17 28 21 21 17 16 14 31 33 56 58 55 53 52 55
17 17 16 15 13 7 9 21 21 11 4 6 6 8 10 34 15 9 9 6 7 16 8 8 4 5 7 9 16 26 35 15 23 26 16 7 21 36 53 52 59 60 62 64
10 9 6 6 8 8 15 19 13 13 11 7 6 6 7 34 15 15 11 7 6 7 5 4 1 7 12 13 27 36 39 29 37 23 13 10 27 43 51 57 61 66 67 67
3 4 3 8 13 20 15 8 7 7 15 14 3 18 6 18 12 7 5 10 4 5 5 8 9 7 22 30 25 26 32 31 27 18 17 15 28 42 51 57 59 64 68 68
8 11 8 15 19 11 8 11 13 15 8 20 16 11 8 18 5 6 15 3 4 5 5 3 5 6 9 35 32 35 29 23 20 15 9 5 21 35 45 47 51 58 61 62
11 9 11 14 18 12 13 4 7 10 4 17 8 14 14 16 12 5 10 4 5 7 9 6 6 6 27 36 35 36 30 25 18 17 22 25 28 33 42 50 53 55 56 59
13 9 10 19 21 19 13 13 9 8 17 22 22 11 14 13 15 3 6 8 5 5 7 6 5 15 29 36 33 30 29 26 25 27 29 33 38 40 43 46 46 46 47 48
12 14 15 9 10 4 4 6 5 13 19 39 35 14 6 10 8 4 8 3 3 6 8 7 6 23 28 30 29 27 31 29 27 30 31 35 39 40 40 43 43 42 44 43
14 14 8 6 5 5 11 17 20 17 33 32 15 16 7 6 6 7 3 9 9 9 5 4 15 22 22 24 27 26 26 26 25 24 26 30 33 34 38 38 37 36 38 38
13 19 7 16 5 13 19 18 18 37 42 19 7 6 7 9 4 11 9 5 8 4 4 11 14 15 18 20 23 24 24 23 22 20 22 22 24 26 28 29 28 27 26 24
11 12 18 9 4 9 16 26 38 41 23 5 4 11 4 6 7 8 9 5 4 10 13 13 13 15 19 21 22 23 23 22 20 18 18 18 18 18 19 19 20 18 16 16
Wind_Direction_500mb
155 154 159 162 164 164 162 141 103 168 169 156 168 167 182 172 165 197 158 169 260 268 216 195 197 199 188 205 193 178 182 124 161 189 5 267 194 190 189 188 210 214 179 271
159 166 166 167 169 170 151 116 109 171 171 188 183 221 199 197 169 186 186 211 195 202 281 185 191 206 206 184 201 174 171 144 136 125 3 335 203 189 199 95 85 209 144 244
157 153 155 160 163 162 150 134 131 146 193 218 166 140 223 201 215 230 214 261 174 220 253 285 199 201 190 182 194 178 130 168 180 190 203 136 190 199 199 153 189 170 223 169
156 155 155 160 165 157 151 122 188 165 179 208 205 182 195 204 215 208 213 246 226 201 234 269 195 184 193 185 190 159 135 163 175 114 152 173 181 180 189 210 203 201 223 204
160 159 160 164 168 171 160 132 145 168 140 183 198 205 214 204 210 191 224 228 224 205 215 220 277 185 184 181 173 176 219 165 123 85 173 167 183 194 195 211 209 228 121 223
166 164 164 170 174 180 166 158 145 155 158 186 188 209 211 220 217 253 231 214 222 217 221 211 237 223 181 162 169 185 182 135 121 194 151 111 185 200 197 211 205 217 215 216
165 166 169 175 176 185 194 178 158 138 157 182 204 200 215 233 235 240 202 223 230 237 221 253 225 209 191 164 181 180 163 125 93 146 126 186 235 188 209 208 208 215 220 167
162 162 168 175 182 190 199 191 183 142 156 202 216 225 214 249 260 257 244 237 236 242 166 214 146 132 208 183 181 180 174 130 116 161 193 288 261 204 194 191 223 215 217 194
156 156 161 163 174 192 208 220 203 170 133 227 193 177 221 238 252 279 248 236 236 206 195 233 138 171 122 154 122 40 82 159 123 144 158 213 173 187 192 156 254 214 214 208
147 147 151 155 165 184 197 206 203 184 159 224 190 168 191 201 224 258 290 147 193 181 193 207 133 158 142 157 148 158 156 156 177 169 189 275 234 162 140 159 245 175 197 207
143 143 146 143 155 169 177 179 192 207 200 246 231 229 206 235 254 225 207 118 64 119 220 184 137 140 188 102 146 164 165 155 170 110 175 250 174 146 174 168 154 206 200 200
137 149 154 158 165 152 183 171 188 209 219 260 274 264 251 246 245 285 198 231 151 164 202 227 120 146 155 157 159 195 189 189 171 193 187 196 183 176 186 193 180 182 193 193
129 135 145 158 157 160 159 169 195 206 244 269 253 263 265 242 248 242 261 185 194 192 194 180 166 140 140 156 212 112 256 169 153 121 222 193 157 181 185 182 185 173 172 173
113 115 129 124 104 117 119 258 283 231 258 247 242 272 320 289 253 238 221 261 191 184 177 157 152 121 198 175 147 146 192 138 151 242 337 102 177 188 186 180 172 158 155 165
113 111 108 111 111 106 87 60 63 285 240 279 271 295 275 330 243 217 212 234 193 146 96 45 77 83 108 6 89 79 346 190 186 208 183 166 192 192 197 187 173 168 164 161
89 93 112 141 178 281 344 318 310 339 286 284 317 289 297 349 204 178 186 194 137 111 106 99 81 85 60 107 80 25 9 28 37 17 202 193 192 201 194 188 180 177 179 181
80 71 65 84 127 36 63 45 329 318 288 296 302 303 337 351 1 60 134 119 97 101 98 84 110 105 62 54 101 1 350 355 31 57 139 164 175 179 191 194 181 177 175 174
81 79 74 76 100 88 36 13 8 355 304 32 351 307 318 4 344 342 22 81 67 44 94 85 48 44 65 77 18 1 352 351 31 38 41 218 190 178 179 181 176 171 168 168
74 58 50 32 34 24 335 332 336 18 40 92 51 337 304 342 349 351 5 60 69 39 59 62 48 6 50 6 353 358 358 3 329 11 39 136 164 161 167 173 173 174 166 167
79 359 22 50 351 335 328 340 359 31 27 50 35 327 298 338 326 347 334 25 51 64 38 21 56 78 79 22 7 353 1 7 9 19 35 94 143 160 165 170 172 173 166 165
15 29 31 358 346 4 23 37 40 347 29 10 340 329 313 346 329 330 3 14 349 81 8 33 77 73 26 357 7 10 19 26 39 52 59 148 172 161 163 160 164 163 161 161
60 52 21 6 19 26 65 351 354 36 7 332 320 308 304 301 326 326 355 38 24 59 322 47 64 37 358 2 10 19 33 47 68 97 113 130 149 154 154 148 149 152 155 155
45 35 44 11 350 39 51 343 332 351 347 8 336 322 314 312 354 32 20 43 39 279 47 69 42 6 360 6 17 32 42 57 77 87 101 119 128 136 140 138 138 140 144 146
49 37 26 66 351 28 208 220 248 298 305 324 316 273 294 330 1 334 58 344 328 54 51 44 19 353 357 10 23 36 45 56 69 87 104 113 122 125 127 129 130 134 136 133
62 40 48 54 307 301 315 315 308 320 309 329 320 274 286 332 36 18 12 30 55 32 38 40 357 354 6 19 30 41 49 57 68 79 91 101 111 120 123 126 130 137 140 146
58 49 53 353 25 341 357 337 327 346 339 329 274 301 29 23 25 40 27 7 36 25 359 336 342 6 21 30 36 42 48 53 58 68 84 93 105 112 114 119 129 134 139 145
55 44 27 35 293 290 329 337 341 348 344 19 344 40 316 307 44 41 11 42 339 327 341 349 4 25 31 34 37 41 46 50 56 62 71 85 99 108 115 123 126 131 140 160
Wind_Speed_850mb
71 74 77 76 72 69 67 39 7 50 60 9 5 8 13 13 11 26 8 6 4 7 34 54 50 59 37 66 52 33 10 12 20 26 8 9 13 21 22 16 16 7 5 10
67 67 69 70 71 76 65 27 19 54 63 14 10 4 10 8 11 15 16 18 23 13 14 26 35 51 61 99 59 42 19 10 19 6 9 9 36 23 38 6 6 20 10 11
63 68 72 74 79 76 62 25 9 11 39 8 9 7 8 12 29 10 25 7 14 13 28 37 33 25 29 96 76 57 24 15 32 40 66 19 39 47 41 8 9 8 30 8
65 67 68 73 79 72 46 11 7 18 19 24 19 20 16 22 13 25 22 19 34 23 18 38 25 28 24 53 62 15 14 14 17 7 14 32 44 38 42 38 28 21 31 25
67 65 63 66 74 74 22 16 12 16 5 30 32 18 20 21 21 19 21 35 34 34 30 41 17 36 34 34 34 41 9 17 10 4 24 36 47 53 52 58 54 46 9 25
63 60 58 59 70 77 17 17 23 23 16 21 17 32 35 33 21 20 50 32 31 34 55 51 71 70 48 53 48 50 29 14 10 5 13 21 11 62 64 59 48 59 37 35
60 57 50 50 66 71 33 33 29 10 7 18 32 18 34 41 40 43 10 53 41 35 37 40 61 59 28 54 43 44 33 15 7 7 22 18 14 42 57 59 57 57 41 17
59 51 46 43 63 63 46 35 21 12 7 16 20 19 13 11 29 31 31 66 60 44 28 13 20 8 7 37 56 35 22 15 10 12 20 7 14 16 57 43 60 51 54 31
54 46 40 39 42 53 52 42 29 13 9 12 12 8 13 16 18 15 32 40 31 37 16 11 10 10 11 12 12 11 9 13 14 9 13 24 7 14 58 14 36 49 52 42
48 42 37 33 28 26 26 23 38 18 7 13 20 8 9 10 18 13 6 11 16 55 9 10 8 5 10 21 29 24 18 13 22 17 6 17 15 13 68 27 23 44 81 81
42 37 31 25 20 19 18 14 23 30 13 17 23 21 23 20 22 17 11 11 2 5 9 5 7 6 8 9 13 34 21 22 13 7 5 24 22 45 50 8 13 36 56 73
30 27 23 20 18 13 7 7 11 26 19 12 19 36 39 46 53 20 26 6 11 16 7 3 7 6 9 14 19 10 5 19 20 28 15 8 36 40 64 33 31 25 46 60
25 21 18 15 12 8 3 5 13 14 9 15 17 19 27 41 42 38 12 9 22 16 19 9 6 9 7 10 7 9 5 9 10 9 12 10 38 31 35 30 27 35 36 50
25 20 17 14 13 15 8 6 7 8 8 6 11 19 21 25 40 46 56 11 22 11 15 2 4 7 4 5 10 8 8 13 13 2 4 12 26 45 41 32 32 40 44 50
26 23 22 22 22 21 16 11 7 4 7 5 9 23 22 32 28 37 60 23 19 7 5 5 3 3 6 3 7 4 8 6 14 11 21 9 40 72 66 43 45 49 50 51
17 11 8 5 3 3 9 4 5 14 11 10 6 9 15 35 11 33 37 14 18 9 9 3 4 6 2 6 5 10 21 24 22 5 16 20 45 73 57 53 52 54 51 51
23 22 19 9 4 2 8 9 19 14 9 6 6 6 12 41 21 3 18 9 13 9 10 4 6 2 5 5 6 17 28 21 21 17 16 14 31 33 56 58 55 53 52 55
17 17 16 15 13 7 9 21 21 11 4 6 6 8 10 34 15 9 9 6 7 16 8 8 4 5 7 9 16 26 35 15 23 26 16 7 21 36 53 52 59 60 62 64
10 9 6 6 8 8 15 19 13 13 11 7 6 6 7 34 15 15 11 7 6 7 5 4 1 7 12 13 27 36 39 29 37 23 13 10 27 43 51 57 61 66 67 67
3 4 3 8 13 20 15 8 7 7 15 14 3 18 6 18 12 7 5 10 4 5 5 8 9 7 22 30 25 26 32 31 27 18 17 15 28 42 51 57 59 64 68 68
8 11 8 15 19 11 8 11 13 15 8 20 16 11 8 18 5 6 15 3 4 5 5 3 5 6 9 35 32 35 29 23 20 15 9 5 21 35 45 47 51 58 61 62
11 9 11 14 18 12 13 4 7 10 4 17 8 14 14 16 12 5 10 4 5 7 9 6 6 6 27 36 35 36 30 25 18 17 22 25 28 33 42 50 53 55 56 59
13 9 10 19 21 19 13 13 9 8 17 22 22 11 14 13 15 3 6 8 5 5 7 6 5 15 29 36 33 30 29 26 25 27 29 33 38 40 43 46 46 46 47 48
12 14 15 9 10 4 4 6 5 13 19 39 35 14 6 10 8 4 8 3 3 6 8 7 6 23 28 30 29 27 31 29 27 30 31 35 39 40 40 43 43 42 44 43
14 14 8 6 5 5 11 17 20 17 33 32 15 16 7 6 6 7 3 9 9 9 5 4 15 22 22 24 27 26 26 26 25 24 26 30 33 34 38 38 37 36 38 38
13 19 7 16 5 13 19 18 18 37 42 19 7 6 7 9 4 11 9 5 8 4 4 11 14 15 18 20 23 24 24 23 22 20 22 22 24 26 28 29 28 27 26 24
11 12 18 9 4 9 16 26 38 41 23 5 4 11 4 6 7 8 9 5 4 10 13 13 13 15 19 21 22 23 23 22 20 18 18 18 18 18 19 19 20 18 16 16
Wind_Direction_850mb
155 154 159 162 164 164 162 141 103 168 169 156 168 167 182 172 165 197 158 169 260 268 216 195 197 199 188 205 193 178 182 124 161 189 5 267 194 190 189 188 210 214 179 271
159 166 166 167 169 170 151 116 109 171 171 188 183 221 199 197 169 186 186 211 195 202 281 185 191 206 206 184 201 174 171 144 136 125 3 335 203 189 199 95 85 209 144 244
157 153 155 160 163 162 150 134 131 146 193 218 166 140 223 201 215 230 214 261 174 220 253 285 199 201 190 182 194 178 130 168 180 190 203 136 190 199 199 153 189 170 223 169
156 155 155 160 165 157 151 122 188 165 179 208 205 182 195 204 215 208 213 246 226 201 234 269 195 184 193 185 190 159 135 163 175 114 152 173 181 180 189 210 203 201 223 204
160 159 160 164 168 171 160 132 145 168 140 183 198 205 214 204 210 191 224 228 224 205 215 220 277 185 184 181 173 176 219 165 123 85 173 167 183 194 195 211 209 228 121 223
166 164 164 170 174 180 166 158 145 155 158 186 188 209 211 220 217 253 231 214 222 217 221 211 237 223 181 162 169 185 182 135 121 194 151 111 185 200 197 211 205 217 215 216
165 166 169 175 176 185 194 178 158 138 157 182 204 200 215 233 235 240 202 223 230 237 221 253 225 209 191 164 181 180 163 125 93 146 126 186 235 188 209 208 208 215 220 167
162 162 168 175 182 190 199 191 183 142 156 202 216 225 214 249 260 257 244 237 236 242 166 214 146 132 208 183 181 180 174 130 116 161 193 288 261 204 194 191 223 215 217 194
156 156 161 163 174 192 208 220 203 170 133 227 193 177 221 238 252 279 248 236 236 206 195 233 138 171 122 154 122 40 82 159 123 144 158 213 173 187 192 156 254 214 214 208
147 147 151 155 165 184 197 206 203 184 159 224 190 168 191 201 224 258 290 147 193 181 193 207 133 158 142 157 148 158 156 156 177 169 189 275 234 162 140 159 245 175 197 207
143 143 146 143 155 169 177 179 192 207 200 246 231 229 206 235 254 225 207 118 64 119 220 184 137 140 188 102 146 164 165 155 170 110 175 250 174 146 174 168 154 206 200 200
137 149 154 158 165 152 183 171 188 209 219 260 274 264 251 246 245 285 198 231 151 164 202 227 120 146 155 157 159 195 189 189 171 193 187 196 183 176 186 193 180 182 193 193
129 135 145 158 157 160 159 169 195 206 244 269 253 263 265 242 248 242 261 185 194 192 194 180 166 140 140 156 212 112 256 169 153 121 222 193 157 181 185 182 185 173 172 173
113 115 129 124 104 117 119 258 283 231 258 247 242 272 320 289 253 238 221 261 191 184 177 157 152 121 198 175 147 146 192 138 151 242 337 102 177 188 186 180 172 158 155 165
113 111 108 111 111 106 87 60 63 285 240 279 271 295 275 330 243 217 212 234 193 146 96 45 77 83 108 6 89 79 346 190 186 208 183 166 192 192 197 187 173 168 164 161
89 93 112 141 178 281 344 318 310 339 286 284 317 289 297 349 204 178 186 194 137 111 106 99 81 85 60 107 80 25 9 28 37 17 202 193 192 201 194 188 180 177 179 181
80 71 65 84 127 36 63 45 329 318 288 296 302 303 337 351 1 60 134 119 97 101 98 84 110 105 62 54 101 1 350 355 31 57 139 164 175 179 191 194 181 177 175 174
81 79 74 76 100 88 36 13 8 355 304 32 351 307 318 4 344 342 22 81 67 44 94 85 48 44 65 77 18 1 352 351 31 38 41 218 190 178 179 181 176 171 168 168
74 58 50 32 34 24 335 332 336 18 40 92 51 337 304 342 349 351 5 60 69 39 59 62 48 6 50 6 353 358 358 3 329 11 39 136 164 161 167 173 173 174 166 167
79 359 22 50 351 335 328 340 359 31 27 50 35 327 298 338 326 347 334 25 51 64 38 21 56 78 79 22 7 353 1 7 9 19 35 94 143 160 165 170 172 173 166 165
15 29 31 358 346 4 23 37 40 347 29 10 340 329 313 346 329 330 3 14 349 81 8 33 77 73 26 357 7 10 19 26 39 52 59 148 172 161 163 160 164 163 161 161
60 52 21 6 19 26 65 351 354 36 7 332 320 308 304 301 326 326 355 38 24 59 322 47 64 37 358 2 10 19 33 47 68 97 113 130 149 154 154 148 149 152 155 155
45 35 44 11 350 39 51 343 332 351 347 8 336 322 314 312 354 32 20 43 39 279 47 69 42 6 360 6 17 32 42 57 77 87 101 119 128 136 140 138 138 140 144 146
49 37 26 66 351 28 208 220 248 298 305 324 316 273 294 330 1 334 58 344 328 54 51 44 19 353 357 10 23 36 45 56 69 87 104 113 122 125 127 129 130 134 136 133
62 40 48 54 307 301 315 315 308 320 309 329 320 274 286 332 36 18 12 30 55 32 38 40 357 354 6 19 30 41 49 57 68 79 91 101 111 120 123 126 130 137 140 146
58 49 53 353 25 341 357 337 327 346 339 329 274 301 29 23 25 40 27 7 36 25 359 336 342 6 21 30 36 42 48 53 58 68 84 93 105 112 114 119 129 134 139 145
55 44 27 35 293 290 329 337 341 348 344 19 344 40 316 307 44 41 11 42 339 327 341 349 4 25 31 34 37 41 46 50 56 62 71 85 99 108 115 123 126 131 140 160